Date and Time,30m Wind Direction,30m Wind Speed,30m Wind Vert,30m Quality,40m Wind Direction,40m Wind Speed,40m Wind Vert,40m Quality,50m Wind Direction,50m Wind Speed,50m Wind Vert,50m Quality,60m Wind Direction,60m Wind Speed,60m Wind Vert,60m Quality,80m Wind Direction,80m Wind Speed,80m Wind Vert,80m Quality,100m Wind Direction,100m Wind Speed,100m Wind Vert,100m Quality,120m Wind Direction,120m Wind Speed,120m Wind Vert,120m Quality,140m Wind Direction,140m Wind Speed,140m Wind Vert,140m Quality,160m Wind Direction,160m Wind Speed,160m Wind Vert,160m Quality,180m Wind Direction,180m Wind Speed,180m Wind Vert,180m Quality,200m Wind Direction,200m Wind Speed,200m Wind Vert,200m Quality,30m Wind Turbulence,40m Wind Turbulence,50m Wind Turbulence,60m Wind Turbulence,80m Wind Turbulence,100m Wind Turbulence,120m Wind Turbulence,140m Wind Turbulence,160m Wind Turbulence,180m Wind Turbulence,200m Wind Turbulence
1/12/2016 12:00 AM,237.20,4.15,-0.27,98,269.40,4.20,-0.17,95,270.30,4.65,-0.24,99,281.50,4.76,-0.21,98,283.90,5.02,-0.24,95,284.70,5.24,-0.16,91,279.10,4.18,-0.15,49,261.90,4.98,-0.27,12,299.90,5.35,-0.07,2,201.50,6.56,-0.12,0,30.10,19.21,-1.83,0,0.14,0.14,0.12,0.11,0.10,0.12,0.39,0.65,0.28,0.49,0.18
1/12/2016 12:10 AM,248.70,3.57,-0.16,98,285.80,3.97,-0.08,97,275.40,4.03,-0.16,97,290.00,4.72,-0.10,97,298.00,4.37,-0.13,95,297.30,4.73,-0.13,90,306.70,5.09,-0.21,34,223.40,16.10,-0.24,10,193.90,40.25,0.20,1,243.20,40.29,-0.63,1,223.70,13.80,-4.55,2,0.15,0.11,0.13,0.09,0.13,0.22,0.33,0.34,0.11,0.04,4.53
1/12/2016 12:20 AM,269.70,3.41,-0.15,99,288.70,4.19,-0.05,96,287.00,4.32,-0.10,97,290.40,4.96,-0.11,97,293.30,4.46,-0.18,96,294.70,5.46,-0.19,92,301.70,6.20,-0.29,66,341.20,13.94,0.47,22,321.90,7.29,-0.98,1,64.50,15.10,-1.19,0,34.80,8.46,-0.19,0,0.17,0.11,0.11,0.10,0.13,0.11,0.14,0.22,0.22,0.14,0.05
1/12/2016 12:30 AM,258.10,3.45,-0.13,99,286.20,3.94,0.01,97,282.70,4.25,-0.04,98,293.60,4.40,0.05,98,292.10,4.51,0.01,98,297.30,5.04,0.02,95,299.90,5.35,0.04,88,301.30,4.87,0.10,33,311.20,6.28,0.02,0,42.70,39.61,-1.81,0,55.60,32.17,-2.69,0,0.17,0.12,0.12,0.10,0.10,0.10,0.11,0.22,0.23,0.00,0.03
1/12/2016 12:40 AM,269.40,3.52,-0.11,99,293.50,4.08,-0.09,97,291.00,4.48,-0.14,97,294.30,4.74,-0.12,98,296.50,4.88,-0.18,97,299.60,4.53,-0.13,95,294.90,4.97,-0.14,86,286.40,5.62,-0.08,37,290.80,7.06,-0.01,9,309.20,1.48,0.49,0,60.10,4.44,-0.42,0,0.16,0.13,0.11,0.10,0.09,0.11,0.13,0.32,0.13,0.18,0.13
1/12/2016 12:50 AM,267.60,3.85,0.00,99,283.10,3.74,0.11,97,285.90,4.32,0.14,98,291.30,4.44,0.12,99,289.80,4.74,0.11,98,290.30,4.69,0.12,95,289.70,4.97,0.18,90,288.80,5.92,0.25,51,244.50,4.09,0.06,8,268.50,6.19,-0.07,0,39.20,22.12,-0.78,0,0.13,0.11,0.11,0.12,0.11,0.17,0.17,0.21,0.28,0.08,0.00
1/12/2016 1:00 AM,277.90,3.05,0.02,99,292.40,3.85,0.05,97,291.60,3.92,0.05,98,296.70,4.28,0.07,98,291.60,4.64,0.02,96,294.20,4.82,0.13,95,288.40,4.18,0.15,75,294.50,5.05,0.03,32,289.00,11.14,-0.58,4,208.80,1.29,0.24,0,349.50,19.29,0.89,0,0.16,0.12,0.11,0.11,0.12,0.18,0.13,0.29,0.35,0.00,0.05
1/12/2016 1:10 AM,311.70,1.95,0.00,98,311.30,2.89,0.04,98,305.80,2.95,0.03,98,313.50,3.19,0.05,99,305.90,3.65,0.08,97,304.10,4.36,0.06,94,308.10,4.28,0.06,89,305.70,6.24,0.35,30,112.30,11.71,2.38,1,1.50,15.65,1.37,0,120.00,0.07,0.01,0,0.24,0.13,0.14,0.15,0.14,0.11,0.17,0.13,0.24,0.03,0.20
1/12/2016 1:20 AM,302.90,1.53,-0.15,94,322.80,2.41,-0.07,97,301.80,1.96,-0.14,95,316.90,1.76,-0.05,95,303.80,2.70,-0.08,78,310.20,4.13,-0.13,23,116.20,16.21,1.72,1,182.60,1.36,-6.16,1,350.20,15.32,-3.38,0,225.20,12.98,-4.44,0,126.60,36.19,0.74,1,0.30,0.16,0.25,0.36,0.41,2.05,0.33,0.39,0.12,0.00,0.03
1/12/2016 1:30 AM,243.70,1.57,-0.20,96,309.50,2.15,-0.07,96,296.50,2.24,-0.03,95,305.00,2.19,-0.14,96,293.30,2.01,-0.11,75,315.40,3.45,-0.19,29,222.90,6.87,-0.82,6,231.20,25.34,-5.49,0,206.30,15.31,-6.53,1,247.60,33.69,-1.03,0,281.10,22.31,-1.34,0,0.31,0.17,0.14,0.15,0.35,0.45,0.26,0.03,0.44,0.17,0.03
1/12/2016 1:40 AM,228.00,1.00,-0.25,95,299.90,1.72,-0.11,96,309.30,1.77,-0.06,96,313.30,2.61,-0.06,96,313.40,2.99,-0.08,96,318.00,3.21,-0.05,91,309.90,3.91,0.00,36,128.90,3.94,0.32,1,108.60,50.29,-0.75,0,253.90,19.74,0.57,0,132.60,26.22,2.25,0,0.50,0.27,0.16,0.13,0.12,0.08,0.16,0.36,0.01,0.10,0.00
1/12/2016 1:50 AM,189.40,1.54,-0.28,96,301.90,1.51,-0.11,95,318.50,1.91,-0.15,96,310.50,2.60,-0.08,95,313.50,2.70,-0.04,96,313.00,3.24,-0.06,90,287.00,2.37,-0.14,3,308.80,7.79,-0.77,0,109.30,12.68,1.49,0,57.90,31.35,0.10,0,149.50,13.95,-2.09,0,0.34,0.28,0.21,0.12,0.10,0.15,0.23,0.17,0.00,0.02,0.00
1/12/2016 2:00 AM,206.80,1.15,-0.31,96,283.90,1.68,-0.06,96,286.40,1.54,-0.12,95,300.60,2.08,-0.10,97,313.70,2.49,-0.14,92,319.90,2.94,-0.12,37,300.40,5.20,-0.20,3,338.10,27.39,0.13,0,161.20,8.45,7.31,0,1.40,27.87,2.43,0,5.10,14.40,-3.15,0,0.41,0.26,0.36,0.14,0.23,0.13,0.30,0.03,0.11,0.00,0.04
1/12/2016 2:10 AM,228.40,1.50,-0.26,97,284.10,1.71,-0.05,97,277.30,1.60,-0.08,97,299.10,2.39,-0.07,96,297.20,2.40,-0.07,95,307.10,3.00,-0.12,77,313.40,3.85,-0.52,24,191.60,7.10,-1.22,8,202.90,11.93,-5.31,0,244.60,28.80,-3.07,1,155.20,21.13,-2.78,2,0.36,0.21,0.23,0.16,0.25,0.48,0.54,0.69,0.09,0.13,0.13
1/12/2016 2:20 AM,221.80,1.68,-0.15,95,275.40,1.17,-0.02,97,294.60,1.34,-0.01,97,302.10,1.82,0.03,97,305.10,2.00,0.05,96,309.00,1.62,0.13,87,334.50,2.39,-0.04,38,322.00,4.88,-0.15,1,184.90,15.93,-1.57,0,240.10,17.21,1.63,0,34.50,17.81,3.15,0,0.30,0.39,0.33,0.21,0.22,1.44,0.24,0.16,0.22,0.11,0.00
1/12/2016 2:30 AM,210.40,1.90,-0.21,97,291.00,1.92,-0.01,98,281.20,2.03,-0.02,97,297.10,2.57,0.02,96,303.90,2.33,0.07,95,310.30,2.97,0.14,91,302.30,3.43,0.21,41,286.90,1.73,0.95,0,204.60,5.14,1.51,0,60.10,27.90,-2.64,0,186.10,19.26,5.54,0,0.28,0.20,0.23,0.14,0.18,0.15,0.11,0.57,0.22,0.00,0.00
1/12/2016 2:40 AM,214.70,1.61,-0.30,95,312.00,1.51,-0.06,95,296.90,1.30,-0.08,96,333.10,2.05,-0.04,96,321.80,1.74,0.01,94,318.50,2.32,0.08,88,19.20,3.92,-0.38,36,227.70,9.17,-0.43,1,59.30,5.74,-1.77,0,206.40,9.06,-5.72,1,179.90,15.13,-4.49,1,0.34,0.31,0.36,0.16,0.40,0.97,0.67,0.33,0.21,0.26,0.09
1/12/2016 2:50 AM,169.40,2.62,-0.41,96,3.90,0.27,-0.16,94,326.30,0.31,-0.18,95,333.90,1.37,-0.11,93,333.20,1.61,-0.17,70,314.00,2.66,0.05,33,21.80,16.16,-1.43,0,60.10,13.12,-1.24,0,213.50,35.31,0.64,0,178.50,18.33,4.06,0,300.00,11.34,-1.42,0,0.18,2.32,5.05,0.57,0.45,0.25,0.74,0.39,0.00,0.00,0.00
1/12/2016 3:00 AM,183.60,3.45,-0.54,95,340.60,0.54,-0.15,95,348.00,0.30,-0.15,95,347.70,1.35,-0.17,96,352.70,2.14,-0.13,93,350.00,3.35,-0.06,43,356.60,5.14,-0.30,6,122.50,15.80,2.11,0,51.90,15.43,-1.12,0,60.10,15.08,-1.43,0,79.80,12.17,-1.70,0,0.12,0.97,1.30,0.22,0.14,0.27,0.23,0.10,0.09,0.00,0.00
1/12/2016 3:10 AM,162.60,3.85,-0.47,36,4.10,0.70,-0.16,82,9.30,0.63,-0.14,97,347.60,1.45,-0.10,96,351.50,2.23,-0.09,93,347.90,2.88,-0.10,68,306.60,15.15,-2.35,2,131.40,25.51,4.06,0,120.00,23.31,2.93,0,353.60,8.49,5.48,0,158.20,38.88,-0.20,0,0.11,0.65,0.55,0.23,0.12,0.24,5.31,0.08,0.11,0.39,0.00
1/12/2016 3:20 AM,160.60,2.83,-0.48,65,5.00,1.00,-0.12,94,22.10,0.92,-0.20,96,8.40,1.82,-0.18,96,357.90,1.83,-0.10,93,356.30,2.71,-0.08,44,265.50,7.62,0.45,0,359.90,0.92,0.08,0,59.30,21.72,-5.01,0,300.00,25.75,-3.23,0,106.50,10.45,1.68,0,0.18,0.35,0.49,0.16,0.16,0.11,0.16,0.00,0.00,0.00,0.00
1/12/2016 3:30 AM,170.90,2.20,-0.34,77,7.30,0.54,-0.17,94,2.50,0.79,-0.15,96,357.70,1.72,-0.08,96,6.80,2.49,-0.09,93,24.50,2.59,-0.01,56,3.70,3.15,-0.05,16,125.40,24.25,4.22,0,241.90,15.35,1.81,0,2.60,25.74,-5.66,0,51.10,31.81,-2.24,0,0.23,0.77,0.46,0.22,0.18,0.36,0.15,0.06,0.41,0.00,0.00
1/12/2016 3:40 AM,150.30,2.10,-0.29,95,69.00,0.77,-0.20,94,52.10,0.54,-0.13,94,23.20,1.11,-0.07,93,61.30,2.09,0.13,76,88.00,4.18,0.59,32,94.00,4.66,0.57,5,58.90,16.51,-1.82,0,120.00,26.80,3.37,0,330.40,45.58,-1.06,0,267.80,23.29,3.56,0,0.24,0.70,0.96,0.28,0.55,0.47,1.53,0.10,0.00,0.00,0.00
1/12/2016 3:50 AM,169.80,2.17,-0.32,94,162.70,0.97,-0.31,90,134.60,0.96,-0.16,90,29.70,0.77,-0.08,93,48.30,1.42,-0.05,71,5.10,2.10,-0.10,24,76.20,38.53,-0.84,1,60.10,12.06,-1.14,0,120.00,26.38,3.31,0,85.90,48.41,0.10,0,245.10,19.65,-4.11,0,0.23,0.67,0.54,0.81,0.46,0.22,0.17,0.00,0.03,0.00,0.12
1/12/2016 4:00 AM,158.20,1.62,-0.29,95,20.90,1.74,-0.09,93,22.70,1.35,-0.10,94,5.40,1.75,-0.09,95,10.20,2.06,-0.11,91,0.30,2.91,0.01,28,61.10,3.68,0.27,3,237.20,8.36,0.88,0,60.10,29.10,-2.76,0,92.80,45.14,1.28,0,60.10,18.15,-1.72,0,0.31,0.27,0.34,0.18,0.15,0.26,0.18,0.12,0.00,0.00,3.05
1/12/2016 4:10 AM,128.40,0.68,-0.22,96,2.60,2.06,-0.13,95,30.50,1.25,-0.14,97,31.80,1.62,-0.05,96,20.80,1.85,-0.01,89,13.40,3.39,0.04,21,25.70,2.31,-0.02,1,120.00,18.34,2.30,0,178.00,26.42,5.85,0,120.00,2.81,0.35,0,180.00,0.00,0.00,0,0.71,0.17,0.32,0.20,0.17,0.10,0.08,0.01,0.00,0.18,0.00
1/12/2016 4:20 AM,143.80,1.80,-0.27,97,170.90,1.95,-0.32,88,96.30,0.57,-0.15,94,41.20,1.15,-0.12,91,38.70,1.72,-0.11,74,71.30,2.90,0.32,24,14.20,2.49,-0.19,1,70.90,20.02,-1.98,1,97.70,25.23,-4.18,0,60.10,19.26,-1.82,0,180.00,0.00,0.00,0,0.32,0.31,0.65,0.42,0.38,0.29,0.06,0.38,0.00,0.01,0.00
1/12/2016 4:30 AM,143.10,2.00,-0.26,94,171.40,2.09,-0.33,94,134.10,1.22,-0.19,95,54.30,1.14,-0.08,91,42.80,1.68,-0.12,72,20.80,2.45,-0.12,18,303.90,28.49,-3.56,0,233.90,11.65,0.84,1,173.90,26.61,-2.61,0,53.60,15.33,-0.36,0,179.90,17.98,-1.48,0,0.26,0.23,0.33,0.30,0.19,0.16,0.00,0.14,0.00,0.09,0.21
1/12/2016 4:40 AM,154.40,2.14,-0.26,94,161.70,1.83,-0.26,94,161.30,1.58,-0.19,94,84.20,1.29,-0.04,91,30.00,1.36,-0.16,49,60.70,3.40,-0.16,12,30.80,2.08,0.13,0,303.60,1.88,-0.22,0,179.90,30.81,-2.53,0,236.20,23.69,2.00,0,60.10,3.69,-0.35,0,0.23,0.29,0.27,0.38,0.20,0.29,0.03,0.08,0.00,0.01,0.34
1/12/2016 4:50 AM,173.40,3.45,-0.44,93,151.40,1.51,-0.22,94,129.60,0.99,-0.17,94,60.40,0.97,-0.05,91,62.00,1.39,-0.11,38,20.40,1.96,-0.05,3,21.20,1.85,-0.43,1,55.00,2.85,-0.31,0,240.70,51.46,-4.46,0,246.30,6.22,-8.21,0,185.30,29.27,-2.92,0,0.12,0.28,0.35,0.37,0.50,0.47,0.67,0.26,0.03,0.12,0.00
1/12/2016 5:00 AM,162.90,3.84,-0.43,93,153.30,2.96,-0.29,94,131.30,1.14,-0.16,94,94.60,1.12,-0.05,92,40.00,0.71,-0.17,33,227.20,1.83,0.19,1,64.20,33.19,-2.18,1,175.70,17.58,-1.19,0,86.60,11.54,-6.19,0,330.80,38.01,-0.83,0,180.00,0.00,0.00,0,0.12,0.23,0.31,0.29,0.28,0.28,0.00,0.24,0.13,0.01,0.00
1/12/2016 5:10 AM,166.20,4.31,-0.38,93,142.90,1.37,-0.19,94,117.60,0.98,-0.12,94,75.70,1.09,0.03,81,41.00,1.32,-0.07,39,158.90,9.40,-0.39,1,357.40,26.69,-5.91,0,155.00,12.57,0.08,0,9.00,22.88,-4.93,0,35.90,14.23,-0.36,0,60.10,26.74,-2.53,0,0.09,0.30,0.30,0.29,0.24,0.42,0.06,0.04,0.06,0.11,0.00
1/12/2016 5:20 AM,173.10,3.86,-0.44,60,170.80,2.29,-0.34,94,146.00,1.77,-0.11,95,101.90,1.16,-0.06,46,47.30,0.83,-0.07,5,39.00,1.62,-0.06,0,151.00,33.82,-0.05,0,55.00,7.56,-0.85,0,180.00,0.00,0.00,0,179.90,5.42,-0.45,0,91.40,11.36,-1.00,0,0.11,0.24,0.23,0.24,0.55,0.18,0.00,0.07,0.00,0.00,0.00
1/12/2016 5:30 AM,162.20,4.38,-0.35,95,155.80,3.25,-0.36,84,130.20,1.18,-0.19,91,39.50,1.15,-0.08,93,30.20,1.63,-0.11,73,31.20,2.21,0.01,23,349.70,2.25,-0.34,0,55.00,0.96,0.20,0,359.90,20.57,1.69,0,306.40,25.16,-3.66,0,188.80,23.58,3.95,0,0.09,0.16,0.28,0.31,0.18,1.02,0.29,0.00,0.00,0.06,0.07
1/12/2016 5:40 AM,160.60,4.62,-0.28,93,145.80,1.10,-0.22,93,141.00,1.00,-0.15,93,41.60,1.14,-0.09,92,25.40,1.82,-0.12,79,4.90,1.25,-0.28,15,177.00,2.27,-0.42,4,68.50,1.21,-0.14,0,335.20,6.10,-7.84,0,240.10,11.67,1.11,0,182.40,27.14,5.97,0,0.08,0.49,0.40,0.30,0.48,0.84,0.48,0.28,0.12,1.18,0.00
1/12/2016 5:50 AM,159.70,3.30,-0.32,96,153.10,1.87,-0.28,72,157.60,0.74,-0.15,95,24.70,1.24,-0.10,92,17.70,1.91,-0.10,66,16.40,2.69,-0.11,29,48.40,8.05,-0.69,3,179.90,16.81,-1.38,0,240.10,16.10,1.52,0,60.10,25.16,-2.38,0,121.80,19.40,-3.41,0,0.14,0.30,0.56,0.73,0.31,0.11,0.17,0.00,0.02,0.00,0.00
1/12/2016 6:00 AM,158.20,3.14,-0.28,95,358.40,0.93,-0.22,89,49.00,0.95,-0.17,96,16.90,2.00,-0.06,95,27.90,2.00,-0.11,88,30.30,2.30,-0.02,31,18.00,2.40,-0.11,4,225.50,18.69,-2.11,0,359.90,12.89,1.06,0,300.00,12.70,-1.60,0,47.90,33.60,-2.05,0,0.19,0.67,0.41,0.14,0.12,0.21,0.10,0.02,0.00,0.00,0.01
1/12/2016 6:10 AM,165.10,2.70,-0.29,64,36.70,0.77,-0.06,36,42.70,1.08,-0.13,96,30.60,1.61,-0.08,94,49.50,1.58,-0.11,85,14.10,2.68,-0.17,22,12.90,3.96,-0.03,0,265.20,20.31,-4.04,0,180.00,0.00,0.00,0,190.30,17.26,-1.99,0,300.00,31.43,-3.95,0,0.20,0.54,0.33,0.20,0.60,0.65,0.02,0.00,0.00,0.09,0.00
1/12/2016 6:20 AM,155.60,3.05,-0.29,96,148.70,0.90,-0.26,55,98.20,0.68,-0.15,95,40.20,1.08,-0.06,92,29.80,2.24,-0.07,86,20.20,2.40,-0.05,68,3.10,2.31,-0.13,6,179.90,30.55,-2.51,0,31.90,4.71,-6.59,0,180.00,0.00,0.00,0,101.50,21.90,2.70,0,0.16,0.52,0.58,0.34,0.11,0.23,0.23,0.00,0.00,0.00,0.13
1/12/2016 6:30 AM,171.20,3.81,-0.39,94,162.40,2.32,-0.26,48,140.80,1.04,-0.21,95,44.10,1.31,-0.05,92,26.80,2.19,-0.04,93,17.20,2.02,-0.06,90,98.10,4.17,0.45,5,159.30,9.51,-2.35,0,336.20,25.10,-4.13,0,120.00,8.15,1.02,0,292.30,31.77,3.70,0,0.11,0.27,0.40,0.25,0.10,0.12,0.29,0.22,0.01,0.00,0.00
1/12/2016 6:40 AM,161.00,3.65,-0.33,98,176.80,4.83,-0.50,44,139.60,1.15,-0.10,93,50.50,1.00,-0.06,92,17.50,1.88,-0.08,92,11.00,1.99,-0.09,90,6.10,1.80,-0.10,21,120.00,14.07,1.77,0,120.00,10.46,1.31,0,60.10,1.32,-0.13,0,120.00,3.02,0.38,0,0.11,0.11,0.32,0.40,0.27,0.13,0.33,0.00,0.00,0.23,0.42
1/12/2016 6:50 AM,158.90,2.89,-0.27,95,152.70,1.74,-0.24,85,128.30,1.54,-0.18,81,71.00,1.11,-0.04,92,63.00,1.53,-0.07,88,45.70,2.25,0.04,89,47.40,2.09,0.00,49,342.30,26.05,0.53,0,29.60,47.27,-0.28,0,14.00,46.23,-2.60,0,274.40,18.64,3.02,0,0.16,0.35,0.30,0.31,0.16,0.12,0.21,0.01,0.00,0.05,0.35
1/12/2016 7:00 AM,125.60,1.67,-0.21,97,157.20,3.13,-0.36,64,89.50,1.60,-0.10,95,51.10,1.67,-0.04,94,59.70,1.86,-0.11,33,61.30,25.55,-2.04,0,88.80,1.81,-0.13,0,296.90,17.80,-2.39,0,120.00,3.35,0.42,0,93.50,1.38,0.26,0,237.10,12.41,1.08,0,0.29,0.18,0.26,0.19,0.25,0.02,0.00,0.00,0.00,0.37,0.31
1/12/2016 7:10 AM,147.40,1.78,-0.26,94,38.00,1.40,-0.14,95,65.10,1.46,-0.10,95,42.10,2.01,-0.02,95,48.60,2.22,-0.01,93,49.20,2.21,0.02,72,60.30,2.19,0.06,82,87.80,2.01,0.08,49,72.00,1.78,0.11,3,8.90,4.28,0.24,0,41.70,26.95,-4.13,0,0.29,0.34,0.28,0.15,0.12,0.12,0.20,0.12,0.10,0.17,0.00
1/12/2016 7:20 AM,164.00,2.60,-0.39,95,68.70,1.36,-0.08,94,76.60,1.04,-0.19,94,35.80,1.88,-0.07,95,49.20,1.95,-0.07,93,51.10,2.18,-0.07,90,62.60,2.29,-0.04,88,82.40,2.05,-0.01,82,91.30,2.02,-0.08,31,294.30,13.66,-1.93,0,180.10,4.93,0.08,1,0.19,0.38,0.43,0.16,0.12,0.18,0.11,0.24,0.20,0.12,0.17
1/12/2016 7:30 AM,156.50,1.43,-0.32,93,120.40,0.78,-0.22,66,75.30,1.06,-0.16,94,51.90,1.80,-0.03,95,52.20,1.92,-0.04,90,51.90,2.61,0.04,50,58.90,2.62,0.08,77,69.90,2.37,0.08,90,94.30,2.06,0.14,55,53.90,2.00,0.16,1,296.00,2.08,-0.93,0,0.37,0.67,0.38,0.16,0.26,0.34,0.11,0.11,0.25,0.14,0.18
1/12/2016 7:40 AM,166.60,2.89,-0.35,94,133.40,1.68,-0.22,93,87.90,1.74,-0.04,95,62.00,2.03,0.04,97,61.40,2.61,0.14,97,72.00,2.69,0.16,97,74.20,2.50,0.17,93,92.70,2.30,0.22,90,124.50,2.77,0.10,27,141.90,1.63,0.29,0,240.10,20.57,1.95,0,0.17,0.36,0.20,0.13,0.08,0.07,0.11,0.12,0.16,0.36,0.00
1/12/2016 7:50 AM,152.30,3.06,-0.23,94,158.10,2.40,-0.31,94,88.60,1.34,-0.13,95,52.50,2.38,0.05,97,57.60,3.01,0.11,99,63.10,2.88,0.14,98,77.70,2.58,0.14,95,87.70,2.57,0.08,89,104.90,2.40,0.14,62,118.40,1.63,0.14,0,92.00,18.11,-2.88,0,0.16,0.26,0.37,0.16,0.06,0.07,0.10,0.09,0.22,0.93,0.28
1/12/2016 8:00 AM,166.50,3.48,-0.35,94,73.70,1.50,-0.11,96,50.90,2.54,-0.02,96,53.30,3.25,0.05,97,56.00,3.15,0.05,98,66.20,2.80,0.06,96,76.40,2.60,0.04,94,106.70,2.45,-0.02,92,115.50,2.53,0.00,50,79.00,9.47,-0.54,1,353.40,26.95,-5.97,0,0.14,0.32,0.13,0.06,0.07,0.09,0.09,0.09,0.12,0.20,0.00
1/12/2016 8:10 AM,149.00,2.27,-0.28,95,52.90,2.58,-0.02,96,56.40,2.64,-0.04,96,61.70,2.81,0.00,98,75.90,2.69,-0.07,96,98.10,2.49,-0.09,96,112.30,2.34,-0.12,94,117.10,2.43,-0.07,89,129.80,2.86,-0.09,38,117.70,1.36,-0.24,0,240.10,2.40,0.23,0,0.21,0.14,0.10,0.09,0.11,0.11,0.10,0.12,0.18,0.04,0.00
1/12/2016 8:20 AM,78.90,1.37,-0.15,94,51.30,2.51,-0.03,96,62.10,2.71,0.01,97,66.20,2.69,0.00,96,66.60,2.49,-0.03,95,100.90,2.27,-0.04,96,116.90,1.94,-0.06,95,131.30,2.01,-0.06,52,179.20,2.72,0.02,3,288.50,31.18,-3.46,0,201.70,35.24,-0.65,0,0.34,0.13,0.10,0.13,0.12,0.13,0.15,0.22,0.16,0.04,0.01
1/12/2016 8:30 AM,76.60,1.89,-0.07,97,55.20,2.74,-0.02,96,67.30,2.68,-0.04,98,65.40,2.89,0.00,97,88.70,2.47,-0.05,96,102.60,2.51,-0.06,97,111.40,2.32,-0.15,95,131.50,2.43,-0.08,88,155.90,3.09,0.06,7,359.90,10.83,0.89,0,359.90,13.19,1.08,0,0.20,0.09,0.12,0.11,0.12,0.12,0.10,0.11,0.11,65.54,0.00
1/12/2016 8:40 AM,92.10,2.09,-0.04,98,77.60,2.50,0.01,95,89.00,2.33,-0.01,97,81.50,2.46,0.06,96,98.60,2.42,0.02,96,116.40,2.23,0.00,96,124.30,2.48,-0.01,94,137.40,2.51,-0.02,89,117.20,2.73,0.01,11,309.00,34.13,-3.33,0,300.00,19.34,-2.43,0,0.21,0.15,0.14,0.13,0.11,0.11,0.10,0.39,0.58,0.00,0.00
1/12/2016 8:50 AM,103.70,1.71,-0.12,95,63.90,1.91,-0.04,94,91.80,2.08,-0.06,97,65.30,1.89,-0.01,97,86.30,2.06,0.05,95,96.70,1.94,-0.01,94,122.60,1.96,-0.06,92,145.50,1.77,-0.02,48,295.50,21.12,-2.66,0,180.00,0.00,0.00,0,285.40,14.48,0.30,0,0.34,0.24,0.20,0.15,0.16,0.13,0.13,0.20,0.05,0.00,0.62
1/12/2016 9:00 AM,31.70,1.40,-0.13,94,26.00,1.86,-0.01,95,54.40,1.79,0.01,96,51.20,2.00,0.01,96,96.20,0.89,0.00,95,127.80,0.96,0.01,95,126.70,1.59,-0.03,72,175.50,2.27,0.10,16,229.90,14.97,1.34,0,120.00,9.15,1.15,0,120.00,16.06,2.02,0,0.35,0.17,0.17,0.18,0.43,0.29,0.16,0.18,0.14,0.11,0.04
1/12/2016 9:10 AM,100.60,0.34,-0.25,95,26.20,2.03,-0.06,96,42.30,2.17,0.00,95,50.60,2.23,0.07,96,64.60,1.81,0.07,95,84.30,1.38,0.02,96,131.20,1.34,0.06,91,122.50,1.77,0.11,34,209.30,9.87,0.03,1,109.10,8.82,1.37,0,155.80,12.73,-1.77,0,1.46,0.18,0.15,0.13,0.14,0.20,0.32,0.15,0.17,0.00,0.07
1/12/2016 9:20 AM,157.80,2.29,-0.30,95,37.00,1.68,-0.03,95,64.40,1.80,-0.05,95,62.60,1.70,-0.03,96,102.30,1.53,-0.02,95,118.90,1.77,-0.07,89,166.50,1.85,0.10,16,177.60,12.84,-1.13,0,300.00,8.89,-1.12,0,68.50,17.51,-1.13,0,300.00,30.27,-3.80,0,0.22,0.24,0.19,0.20,0.16,0.30,0.30,0.01,0.23,0.05,0.00
1/12/2016 9:30 AM,77.50,1.34,-0.07,95,36.10,2.27,-0.01,94,45.30,1.37,-0.08,95,71.20,0.88,-0.05,95,86.60,1.34,-0.02,91,111.30,1.70,-0.03,70,113.70,1.46,-0.05,40,124.10,29.52,3.19,0,192.30,14.75,-0.69,0,329.30,20.94,3.15,0,179.90,13.58,-1.12,0,0.30,0.13,0.30,0.46,0.33,0.29,1.28,0.03,0.00,0.23,0.00
1/12/2016 9:40 AM,43.00,0.30,-0.27,95,10.00,2.45,-0.08,96,10.50,2.43,-0.07,97,15.40,2.17,-0.04,96,12.00,1.58,-0.09,94,50.90,0.70,-0.01,58,325.70,0.89,-0.20,24,9.10,8.76,-1.71,2,311.30,30.84,0.69,0,60.10,14.83,-1.40,0,28.20,17.27,-5.83,0,1.47,0.12,0.10,0.12,0.21,1.57,1.94,0.21,0.03,0.21,0.02
1/12/2016 9:50 AM,168.10,1.51,-0.44,96,8.00,2.20,-0.10,93,11.20,2.28,-0.09,96,12.90,2.70,-0.08,96,8.10,1.58,-0.05,96,30.20,1.65,-0.10,87,19.20,1.98,-0.29,2,30.30,38.78,-0.32,0,127.10,26.17,-4.56,0,240.10,18.10,1.71,0,188.90,32.43,-1.84,0,0.32,0.13,0.12,0.11,0.22,0.29,0.42,0.05,0.00,0.02,0.07
1/12/2016 10:00 AM,120.00,0.70,-0.34,96,17.70,2.68,-0.04,94,21.70,2.13,-0.08,94,22.90,2.14,-0.03,95,24.30,1.66,-0.04,90,24.10,0.76,-0.06,58,114.30,2.11,0.12,2,164.40,35.91,-1.00,0,242.20,30.75,-6.42,0,211.10,14.72,0.15,0,239.60,36.12,-4.68,0,0.76,0.12,0.15,0.12,0.24,0.55,0.28,0.08,0.02,0.57,0.04
1/12/2016 10:10 AM,81.30,0.85,-0.21,95,22.40,2.35,-0.05,64,73.40,0.95,-0.08,93,37.50,1.06,-0.09,93,154.80,0.65,0.04,91,328.80,0.56,0.16,41,129.50,18.20,3.09,1,239.10,25.11,-5.21,0,116.50,26.53,-4.68,0,359.90,0.19,0.02,0,203.60,47.07,-0.59,0,0.50,0.16,0.45,0.37,0.47,1.78,0.06,0.01,0.01,9.35,0.00
1/12/2016 10:20 AM,125.10,0.79,-0.18,96,14.00,1.55,0.01,95,18.60,1.14,-0.08,95,315.50,0.90,0.01,96,237.50,0.79,0.06,93,192.90,1.40,0.06,25,241.60,4.73,-0.36,1,100.00,12.79,-2.15,0,60.10,1.11,-0.11,0,60.10,16.68,-1.58,0,322.90,44.56,-2.25,0,0.66,0.21,0.36,0.42,0.32,0.61,0.21,0.30,1.26,0.00,0.00
1/12/2016 10:30 AM,166.30,1.47,-0.35,95,0.90,1.49,-0.07,93,343.30,0.94,-0.05,95,320.70,0.44,-0.02,94,231.70,0.96,-0.01,92,206.70,2.35,-0.16,24,210.50,0.43,-0.14,24,248.20,2.24,0.15,0,283.80,14.74,-1.03,0,133.50,34.09,-3.47,0,120.40,20.65,-5.84,0,0.37,0.20,0.48,1.14,0.38,0.37,0.51,0.08,0.12,0.02,0.11
1/12/2016 10:40 AM,6.20,0.79,-0.12,95,2.50,1.34,-0.08,95,353.80,0.81,-0.13,95,294.00,0.50,-0.07,95,233.70,1.01,-0.05,93,231.70,1.83,-0.08,95,240.00,2.13,-0.09,66,143.20,5.20,0.80,0,240.10,7.54,0.71,0,148.70,25.46,0.76,0,100.60,28.60,1.65,0,0.57,0.29,0.55,0.86,0.30,0.21,0.13,0.03,0.00,0.00,0.00
1/12/2016 10:50 AM,135.70,1.38,-0.03,95,24.40,0.86,-0.02,96,232.40,0.22,-0.05,96,211.50,1.22,-0.08,96,222.40,1.94,-0.06,95,211.60,2.84,-0.06,33,149.50,27.40,0.03,0,73.60,8.06,-1.02,0,169.60,17.74,3.91,0,179.90,7.80,-0.64,0,359.90,23.31,1.92,0,0.34,0.60,1.85,0.34,0.17,0.20,0.08,0.05,0.06,0.26,0.00
1/12/2016 11:00 AM,161.40,2.08,-0.22,95,100.00,0.32,-0.03,95,220.30,0.21,0.00,96,217.70,1.03,-0.04,96,224.40,2.21,-0.14,97,205.40,2.98,-0.24,12,181.50,29.62,-2.59,0,180.00,0.00,0.00,0,9.40,10.02,-2.16,0,183.60,23.80,-1.72,0,240.10,1.17,0.11,0,0.25,1.32,2.45,0.38,0.17,0.88,0.03,0.00,0.00,0.00,0.00
1/12/2016 11:10 AM,159.20,1.73,-0.13,95,178.50,0.53,-0.10,95,217.90,1.21,-0.05,96,211.00,1.75,-0.09,95,207.20,2.42,0.01,89,158.00,3.83,-0.02,0,179.90,18.46,-1.52,0,300.00,16.74,-2.10,0,179.90,29.69,-2.44,0,38.50,34.64,0.38,0,179.90,20.48,-1.68,0,0.26,0.84,0.33,0.24,0.16,0.11,0.02,0.00,0.00,0.07,0.00
1/12/2016 11:20 AM,164.40,3.45,-0.31,94,191.60,0.80,-0.06,95,205.10,1.43,-0.05,95,208.80,1.26,-0.09,95,182.40,0.83,-0.07,23,55.00,16.64,-1.80,0,275.60,1.03,0.17,0,300.00,26.49,-3.33,0,120.00,2.88,0.36,0,44.80,28.09,-3.69,0,60.10,7.61,-0.72,0,0.13,0.53,0.29,0.36,0.56,0.03,0.11,0.00,0.00,0.06,6.41
1/12/2016 11:30 AM,167.30,2.27,-0.20,94,194.40,1.68,-0.16,96,156.90,1.47,-0.09,86,164.90,1.64,-0.05,93,216.30,0.78,-0.07,13,233.50,9.58,1.24,0,238.70,29.58,-6.13,0,159.10,42.38,-0.35,0,240.10,4.67,0.44,0,179.90,24.77,-2.04,0,180.00,0.00,0.00,0,0.23,0.29,0.31,0.24,0.60,0.21,0.00,0.01,0.00,0.07,0.00
1/12/2016 11:40 AM,153.30,2.29,-0.09,95,146.30,2.12,-0.11,95,152.30,2.31,-0.16,96,144.90,1.76,-0.02,94,144.30,1.47,0.02,74,171.30,1.30,-0.02,27,128.50,6.40,0.60,3,192.70,5.39,0.29,0,321.00,41.04,-1.91,0,359.90,11.01,0.90,0,5.20,25.79,1.74,0,0.19,0.23,0.21,0.22,0.23,0.30,0.25,0.12,0.00,0.51,0.02
1/12/2016 11:50 AM,147.70,2.45,-0.11,93,126.90,1.94,-0.15,95,124.20,1.63,-0.05,95,125.70,1.56,-0.02,95,152.50,1.10,-0.06,93,166.20,2.69,-0.07,57,111.90,3.73,-0.33,45,296.20,4.97,-0.53,32,198.10,20.94,-1.08,1,101.30,14.62,-2.47,0,215.40,36.92,0.60,5,0.17,0.26,0.27,0.42,0.54,0.37,0.31,1.76,0.15,0.10,0.45
1/12/2016 12:00 PM,146.20,2.35,-0.18,94,149.90,2.13,-0.18,95,138.80,1.83,-0.07,96,139.40,1.46,-0.02,94,107.90,2.20,-0.09,85,87.30,4.52,-0.16,29,208.20,4.19,-0.22,33,135.40,7.03,-0.74,10,160.50,19.43,1.22,1,174.50,2.52,-6.63,0,221.40,29.20,-0.19,5,0.19,0.21,0.30,0.21,0.41,0.62,0.47,0.51,2.57,0.35,0.14
1/12/2016 12:10 PM,153.00,3.02,-0.22,94,119.00,1.40,-0.29,93,150.10,1.66,-0.20,96,126.50,1.99,-0.08,94,122.50,2.32,-0.19,90,76.80,1.32,-0.30,71,108.30,2.57,-0.58,58,157.00,15.73,-0.41,5,259.10,14.36,0.68,2,55.30,13.04,-5.58,6,81.30,6.81,-5.35,9,0.15,0.44,0.43,0.46,0.43,1.70,0.79,0.97,0.21,0.72,0.50
1/12/2016 12:20 PM,158.80,2.95,-0.17,94,147.10,2.46,-0.17,95,127.60,2.14,-0.05,96,124.00,2.52,-0.01,96,121.80,2.58,0.03,96,133.10,3.40,0.00,91,132.40,3.72,0.01,90,142.50,3.98,0.02,59,136.30,4.81,-0.05,18,176.00,19.92,-1.65,2,142.50,16.44,-6.03,1,0.15,0.18,0.14,0.14,0.12,0.23,0.15,0.14,0.09,0.13,0.11
1/12/2016 12:30 PM,148.30,3.44,-0.14,96,138.80,2.46,-0.06,95,126.90,2.67,0.03,96,127.00,2.12,0.08,96,142.20,2.81,0.06,93,143.40,3.53,0.05,84,135.30,5.24,-0.10,39,149.00,13.21,-1.30,16,113.80,14.25,-1.73,9,113.00,13.17,-2.98,14,191.70,32.91,-0.42,0,0.12,0.16,0.14,0.28,0.41,0.23,0.29,0.27,0.26,1.10,0.18
1/12/2016 12:40 PM,139.20,3.82,-0.07,97,134.40,2.66,-0.07,94,136.40,3.47,0.04,97,140.90,3.35,0.12,95,123.00,3.57,0.00,94,130.10,3.48,-0.27,63,159.60,7.98,-1.75,37,240.00,17.49,-0.40,16,155.00,23.51,-0.77,18,247.00,9.10,-3.18,23,203.90,20.17,-2.19,8,0.12,0.16,0.17,0.31,0.42,0.70,1.72,0.29,0.26,0.59,0.45